Content
SEND FEEDBACK

Daily
Averages
Monthly
Summary
France

LE HAVRE, FRANCE


Home > Europe > France
Elevation: 338 feet     Latitude: 49 31N     Longitude: 000 04E

WEATHER
 
SELECT A DAY
Number of Records: 185,798;   Date Range: 3/4/97 - 11/22/14
 
SHARE

PRINT THIS DATA

[ ← Previous Day ]
WEATHER ALMANAC - MARCH 6, 2013
[ Next Day → ]
[ °C ]   °F
Weather ElementAverageHighLow
Temperature52.8 °F55.4 °F (12:00 pm)50 °F (12:30 am)
Dewpoint43.1 °F48.2 °F (8:30 pm)39.2 °F (1:30 am)
Humidity70 %88 % (9:00 pm)62 % (1:30 am)
Barometer29.50 in29.53 in (12:30 am)29.47 in (3:00 pm)
Wind Speed8.6 mph12.7 mph (9:00 pm)
Weather ElementAverage
Visibility6.2 mi
Wind DirectionESE (112.6 °)

Weather ElementTotal
Precipitation---
Heating Degree Days12.3 (Base 65)
Growing Degree Days2.7 (Base 50)
Averaged from 47 records on March 6, 2013
WEATHER CONDITIONS BREAKOUT
WIND DIRECTION BREAKOUT
WEATHER BY HOUR - MARCH 6, 2013
[ °C ]   °F
Local TimeTemperatureDewpointHumidityBarometerVisibilityWind DirectionWind SpeedGust SpeedPrecipitationEventsConditions
12:30 AM50.0 °F41.0 °F71 %29.53 in6.2 miEast (90°)6.9 mph
1:00 AM50.0 °F41.0 °F71 %29.53 in6.2 miEast (100°)5.8 mph
1:30 AM51.8 °F39.2 °F62 %29.53 in6.2 miSE (130°)10.4 mph
2:00 AM51.8 °F39.2 °F62 %29.53 in6.2 miSE (130°)10.4 mph
2:30 AM51.8 °F39.2 °F62 %29.53 in6.2 miSE (130°)10.4 mph
3:00 AM51.8 °F39.2 °F62 %29.53 in6.2 miSE (130°)9.2 mph
3:30 AM51.8 °F39.2 °F62 %29.53 in6.2 miSE (130°)8.1 mph
4:00 AM51.8 °F39.2 °F62 %29.53 in6.2 miSE (130°)8.1 mph
4:30 AM51.8 °F39.2 °F62 %29.53 in6.2 miESE (120°)9.2 mph
5:00 AM51.8 °F39.2 °F62 %29.50 in6.2 miESE (120°)9.2 mphOvercast
5:30 AM51.8 °F39.2 °F62 %29.50 in6.2 miESE (110°)6.9 mphOvercast
6:00 AM51.8 °F41.0 °F67 %29.50 in6.2 miESE (120°)9.2 mphOvercast
6:30 AM50.0 °F39.2 °F66 %29.50 in6.2 miESE (110°)8.1 mphOvercast
7:00 AM50.0 °F41.0 °F71 %29.50 in6.2 miESE (110°)6.9 mphOvercast
7:30 AM50.0 °F41.0 °F71 %29.50 in6.2 miESE (110°)9.2 mphOvercast
8:00 AM50.0 °F41.0 °F71 %29.50 in6.2 miESE (120°)10.4 mphOvercast
8:30 AM50.0 °F41.0 °F71 %29.50 in6.2 miESE (110°)9.2 mphOvercast
9:00 AM51.8 °F41.0 °F67 %29.53 in6.2 miESE (110°)8.1 mphOvercast
9:30 AM50.0 °F41.0 °F71 %29.53 in6.2 miESE (110°)8.1 mphOvercast
10:00 AM51.8 °F41.0 °F67 %29.50 in6.2 miESE (110°)9.2 mphOvercast
10:30 AM51.8 °F41.0 °F67 %29.50 in6.2 miESE (110°)10.4 mphOvercast
11:00 AM51.8 °F41.0 °F67 %29.50 in6.2 miESE (110°)8.1 mphOvercast
11:30 AM53.6 °F41.0 °F62 %29.50 in6.2 miESE (110°)9.2 mph
12:00 PM55.4 °F42.8 °F63 %29.50 in6.2 miEast (100°)8.1 mph
12:30 PM53.6 °F42.8 °F67 %29.50 in6.2 miESE (120°)10.4 mph
1:00 PM55.4 °F42.8 °F63 %29.50 in6.2 miESE (120°)8.1 mph
1:30 PM55.4 °F42.8 °F63 %29.50 in6.2 miESE (120°)8.1 mph
2:00 PM55.4 °F42.8 °F63 %29.50 in6.2 miEast (90°)5.8 mph
2:30 PM55.4 °F42.8 °F63 %29.50 in6.2 miESE (110°)8.1 mph
3:00 PM55.4 °F44.6 °F67 %29.47 in6.2 miEast (100°)9.2 mphRainLight Rain
3:30 PM55.4 °F46.4 °F72 %29.47 in6.2 miEast (100°)5.8 mphRainLight Rain
4:00 PM55.4 °F46.4 °F72 %29.47 in6.2 miEast (90°)5.8 mphRainLight Rain
4:30 PM55.4 °F46.4 °F72 %29.47 in6.2 miEast (90°)5.8 mph
5:00 PM55.4 °F46.4 °F72 %29.47 in6.2 miEast (80°)5.8 mphMostly Cloudy
5:30 PM55.4 °F46.4 °F72 %29.47 in6.2 miEast (80°)5.8 mph
6:00 PM55.4 °F46.4 °F72 %29.47 in6.2 miEast (90°)6.9 mph
6:30 PM55.4 °F44.6 °F67 %29.47 in6.2 miESE (110°)5.8 mph
7:00 PM55.4 °F46.4 °F72 %29.47 in6.2 miESE (110°)8.1 mphMostly Cloudy
7:30 PM55.4 °F46.4 °F72 %29.47 in6.2 miESE (110°)8.1 mphRainLight Rain
8:00 PM55.4 °F46.4 °F72 %29.47 in6.2 miESE (120°)8.1 mphRainLight Rain
8:30 PM53.6 °F48.2 °F82 %29.47 in6.2 miESE (120°)11.5 mph
9:00 PM51.8 °F48.2 °F88 %29.47 in6.2 miSE (130°)12.7 mph
9:30 PM51.8 °F48.2 °F88 %29.47 in6.2 miSE (130°)10.4 mphMostly Cloudy
10:00 PM51.8 °F48.2 °F88 %29.47 in6.2 miSE (130°)11.5 mphOvercast
10:30 PM51.8 °F48.2 °F88 %29.47 in6.2 miSE (130°)11.5 mphOvercast
11:00 PM51.8 °F48.2 °F88 %29.47 in6.2 miESE (120°)10.4 mphOvercast
11:30 PM51.8 °F48.2 °F88 %29.47 in6.2 miSE (130°)11.5 mphOvercast
Hourly data recorded from LFOH, located miles away from Le Havre, France







STORIES FROM OUR PARTNERS